| time (UTC) | temp F | wind direction | speed MPH | gust MPH | rain 1hr in | rain 24hr in | rain mn in | humidity % | barometer mb |
| 20260507150039 | 55 | 180 | 2.0 | 7.0 | 0.00 | 0.22 | 0.00 | 71 | 1024.4 |
| 20260507145524 | 54 | 180 | 3.0 | 7.0 | 0.00 | 0.22 | 0.00 | 73 | 1024.5 |
| 20260507145014 | 55 | 135 | 2.0 | 4.0 | 0.00 | 0.22 | 0.00 | 74 | 1024.6 |
| 20260507144505 | 54 | 225 | 2.0 | 4.0 | 0.00 | 0.22 | 0.00 | 76 | 1024.5 |
| 20260507143953 | 53 | 203 | 2.0 | 4.0 | 0.00 | 0.22 | 0.00 | 76 | 1024.5 |
| 20260507143448 | 53 | 135 | 4.0 | 7.0 | 0.00 | 0.22 | 0.00 | 77 | 1024.6 |
| 20260507142934 | 53 | 225 | 4.0 | 9.0 | 0.00 | 0.22 | 0.00 | 77 | 1024.6 |
| 20260507142423 | 53 | 180 | 5.0 | 9.0 | 0.00 | 0.22 | 0.00 | 76 | 1024.8 |
| 20260507141913 | 54 | 248 | 2.0 | 7.0 | 0.00 | 0.22 | 0.00 | 74 | 1024.6 |
| 20260507141403 | 54 | 248 | 3.0 | 4.0 | 0.00 | 0.22 | 0.00 | 70 | 1024.5 |
| 20260507140343 | 55 | 158 | 1.0 | 4.0 | 0.00 | 0.22 | 0.00 | 70 | 1024.4 |
| 20260507135833 | 54 | 158 | 2.0 | 4.0 | 0.00 | 0.22 | 0.00 | 72 | 1024.3 |
| 20260507135323 | 54 | 158 | 3.0 | 4.0 | 0.00 | 0.22 | 0.00 | 74 | 1024.6 |
| 20260507134812 | 55 | 90 | 2.0 | 4.0 | 0.00 | 0.22 | 0.00 | 75 | 1024.4 |
| 20260507133753 | 54 | 90 | 3.0 | 4.0 | 0.00 | 0.22 | 0.00 | 76 | 1024.4 |
| 20260507132733 | 54 | 158 | 2.0 | 4.0 | 0.00 | 0.22 | 0.00 | 78 | 1024.3 |
| 20260507132222 | 54 | 68 | 1.0 | 4.0 | 0.00 | 0.22 | 0.00 | 80 | 1024.6 |
| 20260507131717 | 54 | 248 | 0.0 | 4.0 | 0.00 | 0.22 | 0.00 | 81 | 1024.2 |
| 20260507131202 | 53 | 113 | 2.0 | 4.0 | 0.00 | 0.22 | 0.00 | 81 | 1024.4 |
| 20260507130652 | 53 | 180 | 1.0 | 4.0 | 0.00 | 0.22 | 0.00 | 83 | 1024.3 |
| 20260507130141 | 52 | 158 | 2.0 | 4.0 | 0.00 | 0.22 | 0.00 | 83 | 1024.4 |
| 20260507124611 | 50 | 180 | 1.0 | 4.0 | 0.00 | 0.22 | 0.00 | 85 | 1024.1 |
| 20260507124101 | 50 | 158 | 2.0 | 4.0 | 0.00 | 0.22 | 0.00 | 85 | 1024.1 |
| 20260507123551 | 50 | 135 | 2.0 | 4.0 | 0.00 | 0.22 | 0.00 | 85 | 1024.1 |
| 20260507123041 | 50 | 135 | 3.0 | 4.0 | 0.00 | 0.22 | 0.00 | 85 | 1024.2 |
| 20260507122021 | 50 | 203 | 3.0 | 6.0 | 0.00 | 0.22 | 0.00 | 86 | 1023.8 |
| 20260507121000 | 50 | 158 | 3.0 | 4.0 | 0.00 | 0.22 | 0.00 | 86 | 1023.9 |
| 20260507120451 | 50 | 203 | 1.0 | 4.0 | 0.00 | 0.22 | 0.00 | 86 | 1023.7 |
| 20260507115945 | 49 | 135 | 4.0 | 6.0 | 0.00 | 0.22 | 0.00 | 86 | 1023.7 |
| 20260507115431 | 49 | 158 | 3.0 | 6.0 | 0.00 | 0.22 | 0.00 | 86 | 1023.7 |
| 20260507114920 | 50 | 135 | 2.0 | 7.0 | 0.00 | 0.22 | 0.00 | 86 | 1023.3 |
| 20260507114410 | 49 | 180 | 4.0 | 7.0 | 0.00 | 0.22 | 0.00 | 86 | 1023.4 |
| 20260507113900 | 49 | 225 | 4.0 | 6.0 | 0.00 | 0.22 | 0.00 | 87 | 1023.6 |
| 20260507113355 | 50 | 180 | 4.0 | 6.0 | 0.00 | 0.22 | 0.00 | 87 | 1023.6 |
| 20260507112330 | 50 | 203 | 2.0 | 4.0 | 0.00 | 0.22 | 0.00 | 87 | 1023.6 |
| 20260507111819 | 50 | 225 | 2.0 | 4.0 | 0.00 | 0.22 | 0.00 | 87 | 1023.8 |
| 20260507111310 | 50 | 180 | 2.0 | 4.0 | 0.00 | 0.22 | 0.00 | 87 | 1023.6 |
| 20260507110804 | 50 | 135 | 2.0 | 4.0 | 0.00 | 0.22 | 0.00 | 87 | 1023.6 |
| 20260507110249 | 50 | 158 | 3.0 | 4.0 | 0.00 | 0.22 | 0.00 | 87 | 1023.4 |
| 20260507105229 | 50 | 158 | 2.0 | 4.0 | 0.00 | 0.22 | 0.00 | 87 | 1023.3 |
| 20260507104719 | 49 | 158 | 3.0 | 4.0 | 0.00 | 0.22 | 0.00 | 87 | 1023.0 |
| 20260507104213 | 49 | 180 | 3.0 | 4.0 | 0.00 | 0.22 | 0.00 | 87 | 1023.1 |
| 20260507103659 | 49 | 203 | 4.0 | 4.0 | 0.00 | 0.22 | 0.00 | 87 | 1023.1 |
| 20260507103148 | 50 | 158 | 2.0 | 4.0 | 0.00 | 0.22 | 0.00 | 87 | 1022.9 |
| 20260507101622 | 50 | 225 | 0.0 | 2.0 | 0.00 | 0.22 | 0.00 | 87 | 1022.8 |
| 20260507101108 | 50 | 225 | 0.0 | 2.0 | 0.00 | 0.22 | 0.00 | 87 | 1022.5 |
| 20260507100558 | 50 | 180 | 1.0 | 2.0 | 0.00 | 0.22 | 0.00 | 88 | 1022.6 |
| 20260507095538 | 49 | 158 | 2.0 | 4.0 | 0.00 | 0.22 | 0.00 | 88 | 1022.5 |
| 20260507095033 | 49 | 180 | 2.0 | 4.0 | 0.00 | 0.22 | 0.00 | 88 | 1022.5 |
| 20260507094517 | 49 | 248 | 0.0 | 2.0 | 0.00 | 0.22 | 0.00 | 88 | 1022.5 |
| 20260507093457 | 49 | 248 | 2.0 | 4.0 | 0.00 | 0.22 | 0.00 | 88 | 1022.6 |
| 20260507092946 | 49 | 270 | 1.0 | 2.0 | 0.00 | 0.22 | 0.00 | 88 | 1022.4 |
| 20260507092442 | 49 | 203 | 1.0 | 2.0 | 0.00 | 0.22 | 0.00 | 88 | 1022.5 |
| 20260507091927 | 49 | 203 | 2.0 | 2.0 | 0.00 | 0.22 | 0.00 | 88 | 1022.4 |
| 20260507091417 | 49 | 203 | 0.0 | 2.0 | 0.00 | 0.22 | 0.00 | 88 | 1022.0 |
| 20260507090907 | 49 | 135 | 1.0 | 2.0 | 0.00 | 0.22 | 0.00 | 88 | 1022.3 |
| 20260507090357 | 49 | 180 | 1.0 | 2.0 | 0.00 | 0.22 | 0.00 | 88 | 1022.3 |
| 20260507085851 | 49 | 180 | 1.0 | 2.0 | 0.00 | 0.22 | 0.00 | 88 | 1022.1 |
| 20260507085336 | 49 | 158 | 2.0 | 4.0 | 0.00 | 0.22 | 0.00 | 88 | 1022.2 |
| 20260507084826 | 49 | 203 | 2.0 | 4.0 | 0.00 | 0.22 | 0.00 | 88 | 1022.1 |
| 20260507084318 | 49 | 158 | 3.0 | 4.0 | 0.00 | 0.22 | 0.00 | 88 | 1022.1 |
| 20260507083805 | 49 | 135 | 1.0 | 4.0 | 0.00 | 0.22 | 0.00 | 88 | 1022.0 |
| 20260507082745 | 49 | 225 | 3.0 | 4.0 | 0.00 | 0.22 | 0.00 | 88 | 1022.1 |
| 20260507082236 | 49 | 248 | 4.0 | 6.0 | 0.00 | 0.22 | 0.00 | 88 | 1022.1 |
| 20260507081215 | 49 | 225 | 2.0 | 6.0 | 0.00 | 0.22 | 0.00 | 87 | 1021.9 |
| 20260507080709 | 49 | 270 | 4.0 | 6.0 | 0.00 | 0.22 | 0.00 | 87 | 1022.0 |
| 20260507075644 | 49 | 248 | 2.0 | 6.0 | 0.00 | 0.22 | 0.00 | 87 | 1021.9 |
| 20260507075135 | 49 | 248 | 4.0 | 6.0 | 0.00 | 0.22 | 0.00 | 87 | 1021.9 |
| 20260507074626 | 49 | 270 | 2.0 | 6.0 | 0.00 | 0.22 | 0.00 | 87 | 1021.9 |
| 20260507074119 | 49 | 225 | 3.0 | 6.0 | 0.00 | 0.22 | 0.00 | 86 | 1022.0 |
| 20260507073605 | 49 | 248 | 3.0 | 7.0 | 0.00 | 0.22 | 0.00 | 86 | 1022.0 |
| 20260507073054 | 49 | 248 | 3.0 | 7.0 | 0.00 | 0.22 | 0.00 | 86 | 1021.8 |
| 20260507072545 | 49 | 248 | 2.0 | 6.0 | 0.00 | 0.22 | 0.00 | 86 | 1021.8 |
| 20260507072033 | 49 | 225 | 3.0 | 4.0 | 0.00 | 0.22 | 0.00 | 86 | 1021.8 |
| 20260507071528 | 50 | 248 | 1.0 | 2.0 | 0.00 | 0.22 | 0.00 | 86 | 1022.0 |
| 20260507071014 | 50 | 270 | 2.0 | 2.0 | 0.00 | 0.22 | 0.00 | 86 | 1021.8 |
| 20260507070505 | 49 | 270 | 2.0 | 4.0 | 0.00 | 0.22 | 0.00 | 86 | 1022.1 |
| 20260507065954 | 50 | 248 | 2.0 | 4.0 | 0.00 | 0.22 | 0.00 | 86 | 1021.8 |
| 20260507065444 | 50 | 158 | 2.0 | 4.0 | 0.00 | 0.22 | 0.00 | 86 | 1021.5 |
| 20260507064939 | 50 | 225 | 2.0 | 4.0 | 0.00 | 0.22 | 0.00 | 86 | 1021.9 |
| 20260507064423 | 50 | 180 | 2.0 | 4.0 | 0.00 | 0.22 | 0.00 | 87 | 1022.0 |
| 20260507063915 | 50 | 225 | 1.0 | 4.0 | 0.00 | 0.22 | 0.00 | 87 | 1022.0 |
| 20260507063403 | 50 | 158 | 2.0 | 4.0 | 0.00 | 0.22 | 0.00 | 87 | 1021.8 |
| 20260507062856 | 50 | 248 | 2.0 | 4.0 | 0.00 | 0.22 | 0.00 | 87 | 1021.8 |
| 20260507062347 | 50 | 180 | 3.0 | 4.0 | 0.00 | 0.22 | 0.00 | 87 | 1021.8 |
| 20260507061833 | 50 | 180 | 2.0 | 4.0 | 0.00 | 0.22 | 0.00 | 87 | 1021.9 |
| 20260507061322 | 50 | 203 | 2.0 | 4.0 | 0.00 | 0.22 | 0.00 | 87 | 1021.9 |
| 20260507060812 | 50 | 180 | 2.0 | 4.0 | 0.00 | 0.22 | 0.00 | 87 | 1021.5 |
| 20260507060303 | 49 | 203 | 1.0 | 6.0 | 0.00 | 0.22 | 0.00 | 87 | 1021.8 |
| 20260507055242 | 49 | 158 | 1.0 | 6.0 | 0.00 | 0.22 | 0.00 | 87 | 1021.4 |
| 20260507054732 | 49 | 180 | 2.0 | 7.0 | 0.00 | 0.22 | 0.00 | 87 | 1021.9 |
| 20260507054222 | 49 | 270 | 2.0 | 7.0 | 0.00 | 0.22 | 0.00 | 88 | 1021.8 |
| 20260507053713 | 49 | 180 | 2.0 | 8.0 | 0.00 | 0.22 | 0.00 | 87 | 1022.0 |
| 20260507053207 | 49 | 180 | 4.0 | 8.0 | 0.00 | 0.22 | 0.00 | 88 | 1021.6 |
| 20260507052651 | 49 | 203 | 5.0 | 8.0 | 0.00 | 0.22 | 0.00 | 87 | 1021.8 |
| 20260507052141 | 49 | 180 | 4.0 | 8.0 | 0.00 | 0.22 | 0.00 | 87 | 1021.4 |
| 20260507051632 | 49 | 248 | 4.0 | 8.0 | 0.00 | 0.22 | 0.00 | 87 | 1021.4 |
| 20260507051122 | 50 | 248 | 4.0 | 6.0 | 0.00 | 0.22 | 0.00 | 87 | 1021.2 |
| 20260507050616 | 50 | 270 | 2.0 | 6.0 | 0.00 | 0.22 | 0.00 | 87 | 1021.4 |
| 20260507045551 | 50 | 248 | 0.0 | 7.0 | 0.00 | 0.22 | 0.00 | 87 | 1021.5 |
| 20260507045042 | 50 | 225 | 0.0 | 7.0 | 0.00 | 0.22 | 0.00 | 87 | 1021.6 |
| 20260507044530 | 50 | 248 | 2.0 | 7.0 | 0.00 | 0.22 | 0.00 | 87 | 1021.5 |
| 20260507044025 | 50 | 225 | 2.0 | 7.0 | 0.00 | 0.22 | 0.00 | 87 | 1021.5 |
| 20260507043511 | 50 | 270 | 4.0 | 7.0 | 0.00 | 0.22 | 0.00 | 87 | 1021.4 |
| 20260507043000 | 50 | 270 | 3.0 | 4.0 | 0.00 | 0.22 | 0.00 | 87 | 1021.8 |
| 20260507041434 | 50 | 270 | 1.0 | 4.0 | 0.00 | 0.22 | 0.00 | 87 | 1021.6 |
| 20260507040920 | 51 | 270 | 1.0 | 4.0 | 0.00 | 0.22 | 0.00 | 87 | 1021.2 |
| 20260507040410 | 51 | 225 | 2.0 | 4.0 | 0.00 | 0.22 | 0.00 | 87 | 1021.5 |
| 20260507035900 | 51 | 225 | 1.0 | 6.0 | 0.00 | 0.22 | 0.28 | 87 | 1021.3 |
| 20260507035350 | 51 | 225 | 2.0 | 6.0 | 0.00 | 0.22 | 0.28 | 87 | 1021.5 |
| 20260507034844 | 51 | 270 | 4.0 | 6.0 | 0.00 | 0.22 | 0.28 | 87 | 1021.3 |
| 20260507033819 | 51 | 248 | 2.0 | 2.0 | 0.00 | 0.22 | 0.28 | 87 | 1021.4 |
| 20260507033309 | 51 | 293 | 1.0 | 2.0 | 0.00 | 0.22 | 0.28 | 87 | 1021.3 |
| 20260507032254 | 51 | 135 | 2.0 | 4.0 | 0.00 | 0.22 | 0.28 | 87 | 1021.1 |
| 20260507031229 | 51 | 248 | 2.0 | 4.0 | 0.00 | 0.22 | 0.28 | 87 | 1021.1 |
| 20260507030208 | 51 | 180 | 0.0 | 4.0 | 0.00 | 0.22 | 0.28 | 87 | 1021.1 |
| 20260507025703 | 51 | 203 | 0.0 | 4.0 | 0.00 | 0.22 | 0.28 | 87 | 1021.2 |
| 20260507024639 | 51 | 248 | 1.0 | 6.0 | 0.00 | 0.22 | 0.28 | 87 | 1021.0 |
| 20260507024128 | 51 | 248 | 2.0 | 6.0 | 0.00 | 0.22 | 0.28 | 87 | 1021.0 |
| 20260507023618 | 51 | 225 | 2.0 | 6.0 | 0.00 | 0.22 | 0.28 | 87 | 1021.1 |
| 20260507023112 | 51 | 180 | 4.0 | 8.0 | 0.00 | 0.22 | 0.28 | 87 | 1020.9 |
| 20260507022558 | 51 | 203 | 2.0 | 8.0 | 0.00 | 0.22 | 0.28 | 87 | 1020.8 |
| 20260507022048 | 51 | 203 | 4.0 | 7.0 | 0.00 | 0.22 | 0.28 | 88 | 1020.9 |
| 20260507021028 | 51 | 135 | 4.0 | 6.0 | 0.00 | 0.22 | 0.28 | 88 | 1020.7 |
| 20260507020521 | 51 | 113 | 2.0 | 4.0 | 0.00 | 0.22 | 0.28 | 88 | 1020.8 |
| 20260507020007 | 51 | 135 | 2.0 | 4.0 | 0.00 | 0.22 | 0.28 | 88 | 1020.7 |
| 20260507015457 | 51 | 90 | 3.0 | 4.0 | 0.00 | 0.22 | 0.28 | 88 | 1020.6 |
| 20260507014947 | 51 | 315 | 2.0 | 4.0 | 0.00 | 0.22 | 0.28 | 88 | 1020.7 |
| 20260507014437 | 51 | 225 | 1.0 | 6.0 | 0.00 | 0.22 | 0.28 | 88 | 1020.4 |
| 20260507013932 | 51 | 248 | 0.0 | 8.0 | 0.00 | 0.22 | 0.28 | 88 | 1020.5 |
| 20260507012906 | 51 | 225 | 2.0 | 9.0 | 0.00 | 0.22 | 0.28 | 89 | 1020.5 |
| 20260507012357 | 51 | 293 | 5.0 | 9.0 | 0.00 | 0.22 | 0.28 | 89 | 1020.5 |
| 20260507011848 | 51 | 248 | 4.0 | 8.0 | 0.00 | 0.22 | 0.28 | 89 | 1020.4 |
| 20260507011340 | 51 | 248 | 3.0 | 9.0 | 0.00 | 0.22 | 0.28 | 89 | 1020.6 |
| 20260507010827 | 51 | 225 | 3.0 | 9.0 | 0.00 | 0.22 | 0.28 | 89 | 1020.6 |
| 20260507010316 | 51 | 180 | 2.0 | 7.0 | 0.00 | 0.22 | 0.28 | 89 | 1020.4 |
| 20260507005806 | 52 | 158 | 2.0 | 9.0 | 0.00 | 0.22 | 0.28 | 90 | 1020.4 |
| 20260507005255 | 52 | 248 | 3.0 | 9.0 | 0.00 | 0.22 | 0.28 | 89 | 1020.4 |
| 20260507004749 | 52 | 248 | 1.0 | 8.0 | 0.00 | 0.22 | 0.28 | 89 | 1020.5 |
| 20260507004235 | 52 | 248 | 4.0 | 9.0 | 0.00 | 0.22 | 0.28 | 89 | 1020.3 |
| 20260507003725 | 52 | 270 | 6.0 | 11.0 | 0.00 | 0.22 | 0.28 | 90 | 1020.2 |
| 20260507003215 | 52 | 270 | 4.0 | 11.0 | 0.00 | 0.22 | 0.28 | 90 | 1020.0 |
| 20260507002705 | 52 | 158 | 2.0 | 8.0 | 0.00 | 0.22 | 0.28 | 90 | 1020.0 |
| 20260507002159 | 52 | 225 | 4.0 | 8.0 | 0.00 | 0.22 | 0.28 | 90 | 1019.9 |
| 20260507001646 | 52 | 248 | 2.0 | 7.0 | 0.00 | 0.22 | 0.28 | 90 | 1019.7 |
| 20260507000625 | 52 | 270 | 4.0 | 8.0 | 0.00 | 0.22 | 0.28 | 90 | 1020.0 |
| 20260507000115 | 53 | 180 | 4.0 | 8.0 | 0.00 | 0.22 | 0.28 | 90 | 1019.7 |
| 20260506235609 | 53 | 203 | 2.0 | 7.0 | 0.00 | 0.22 | 0.28 | 90 | 1019.9 |
| 20260506235054 | 53 | 225 | 2.0 | 7.0 | 0.00 | 0.22 | 0.28 | 90 | 1019.5 |
| 20260506234544 | 53 | 180 | 1.0 | 8.0 | 0.01 | 0.22 | 0.28 | 90 | 1019.9 |
| 20260506234034 | 53 | 225 | 2.0 | 8.0 | 0.01 | 0.22 | 0.28 | 90 | 1019.3 |
| 20260506233524 | 53 | 113 | 4.0 | 9.0 | 0.01 | 0.22 | 0.28 | 90 | 1019.6 |
| 20260506233019 | 52 | 270 | 3.0 | 13.0 | 0.01 | 0.22 | 0.28 | 90 | 1019.4 |
| 20260506232505 | 52 | 225 | 8.0 | 14.0 | 0.01 | 0.22 | 0.28 | 90 | 1019.4 |
| 20260506231953 | 52 | 248 | 7.0 | 14.0 | 0.01 | 0.22 | 0.28 | 90 | 1019.5 |
| 20260506231444 | 53 | 180 | 4.0 | 13.0 | 0.01 | 0.22 | 0.28 | 90 | 1019.4 |
| 20260506230934 | 53 | 270 | 7.0 | 13.0 | 0.01 | 0.22 | 0.28 | 90 | 1019.2 |
| 20260506230428 | 53 | 248 | 5.0 | 11.0 | 0.01 | 0.22 | 0.28 | 90 | 1019.4 |
| 20260506225913 | 53 | 135 | 6.0 | 11.0 | 0.01 | 0.22 | 0.28 | 90 | 1019.5 |
| 20260506224853 | 53 | 135 | 4.0 | 9.0 | 0.01 | 0.22 | 0.28 | 90 | 1018.9 |
| 20260506224344 | 53 | 135 | 4.0 | 11.0 | 0.00 | 0.21 | 0.27 | 90 | 1019.0 |
| 20260506223838 | 53 | 135 | 4.0 | 11.0 | 0.00 | 0.21 | 0.27 | 90 | 1019.0 |
| 20260506223322 | 53 | 225 | 3.0 | 11.0 | 0.00 | 0.21 | 0.27 | 90 | 1018.9 |
| 20260506222305 | 53 | 180 | 3.0 | 9.0 | 0.01 | 0.21 | 0.27 | 90 | 1018.9 |
| 20260506221753 | 53 | 158 | 4.0 | 11.0 | 0.04 | 0.21 | 0.27 | 90 | 1018.9 |
| 20260506220732 | 53 | 203 | 3.0 | 17.0 | 0.07 | 0.21 | 0.27 | 90 | 1019.0 |
| 20260506220222 | 53 | 158 | 4.0 | 17.0 | 0.07 | 0.21 | 0.27 | 90 | 1018.7 |
| 20260506215712 | 53 | 225 | 5.0 | 16.0 | 0.08 | 0.21 | 0.27 | 90 | 1018.7 |
| 20260506215202 | 54 | 225 | 8.0 | 17.0 | 0.08 | 0.21 | 0.27 | 90 | 1018.5 |
| 20260506214657 | 54 | 270 | 4.0 | 17.0 | 0.11 | 0.21 | 0.27 | 90 | 1018.5 |
| 20260506214141 | 54 | 225 | 9.0 | 17.0 | 0.14 | 0.21 | 0.27 | 89 | 1018.5 |
| 20260506213633 | 54 | 203 | 5.0 | 16.0 | 0.15 | 0.21 | 0.27 | 89 | 1018.4 |
| 20260506213122 | 54 | 23 | 8.0 | 14.0 | 0.17 | 0.21 | 0.27 | 89 | 1018.4 |
| 20260506212614 | 54 | 270 | 6.0 | 15.0 | 0.15 | 0.20 | 0.26 | 89 | 1018.1 |
| 20260506212106 | 54 | 203 | 5.0 | 15.0 | 0.15 | 0.19 | 0.26 | 89 | 1018.2 |
| 20260506211551 | 54 | 225 | 6.0 | 15.0 | 0.11 | 0.14 | 0.20 | 89 | 1018.4 |
| 20260506211041 | 55 | 180 | 6.0 | 16.0 | 0.11 | 0.14 | 0.20 | 89 | 1017.9 |
| 20260506210531 | 56 | 180 | 4.0 | 16.0 | 0.11 | 0.14 | 0.20 | 89 | 1017.8 |
| 20260506210022 | 56 | 203 | 4.0 | 15.0 | 0.09 | 0.13 | 0.19 | 89 | 1017.7 |
| 20260506205515 | 56 | 203 | 4.0 | 14.0 | 0.12 | 0.13 | 0.19 | 88 | 1017.8 |
| 20260506205000 | 56 | 248 | 7.0 | 11.0 | 0.12 | 0.12 | 0.18 | 88 | 1017.7 |
| 20260506204450 | 56 | 248 | 2.0 | 16.0 | 0.08 | 0.08 | 0.14 | 87 | 1017.9 |
| 20260506203940 | 56 | 225 | 6.0 | 17.0 | 0.06 | 0.06 | 0.12 | 87 | 1017.8 |
| 20260506203431 | 56 | 248 | 11.0 | 17.0 | 0.06 | 0.06 | 0.12 | 86 | 1017.8 |
| 20260506202924 | 56 | 225 | 4.0 | 14.0 | 0.05 | 0.05 | 0.11 | 86 | 1017.7 |
| 20260506202410 | 57 | 203 | 8.0 | 14.0 | 0.04 | 0.04 | 0.09 | 85 | 1018.1 |
| 20260506201350 | 57 | 248 | 8.0 | 15.0 | 0.04 | 0.04 | 0.09 | 84 | 1017.9 |
| 20260506200839 | 57 | 225 | 4.0 | 13.0 | 0.04 | 0.04 | 0.09 | 83 | 1017.8 |
| 20260506200334 | 58 | 248 | 7.0 | 13.0 | 0.04 | 0.04 | 0.09 | 82 | 1017.6 |
| 20260506195819 | 58 | 180 | 5.0 | 9.0 | 0.02 | 0.02 | 0.08 | 81 | 1017.6 |
| 20260506195309 | 59 | 225 | 4.0 | 8.0 | 0.00 | 0.00 | 0.06 | 79 | 1017.9 |
| 20260506194759 | 59 | 248 | 3.0 | 11.0 | 0.00 | 0.00 | 0.06 | 78 | 1017.9 |
| 20260506194249 | 59 | 203 | 5.0 | 11.0 | 0.00 | 0.00 | 0.06 | 78 | 1017.9 |
| 20260506193744 | 59 | 158 | 7.0 | 11.0 | 0.00 | 0.00 | 0.06 | 77 | 1017.7 |
| 20260506193228 | 60 | 135 | 5.0 | 9.0 | 0.00 | 0.00 | 0.06 | 76 | 1017.9 |
| 20260506192719 | 60 | 180 | 4.0 | 9.0 | 0.00 | 0.00 | 0.06 | 76 | 1017.7 |
| 20260506192209 | 60 | 158 | 3.0 | 7.0 | 0.00 | 0.00 | 0.06 | 76 | 1017.6 |
| 20260506191658 | 60 | 158 | 5.0 | 7.0 | 0.00 | 0.00 | 0.06 | 77 | 1017.7 |
| 20260506191152 | 60 | 135 | 2.0 | 6.0 | 0.00 | 0.00 | 0.06 | 77 | 1017.8 |
| 20260506190638 | 60 | 113 | 3.0 | 7.0 | 0.00 | 0.00 | 0.06 | 78 | 1017.9 |
| 20260506190128 | 60 | 135 | 3.0 | 7.0 | 0.00 | 0.00 | 0.06 | 79 | 1018.2 |
| 20260506185618 | 60 | 113 | 4.0 | 6.0 | 0.00 | 0.00 | 0.06 | 80 | 1018.2 |
| 20260506185108 | 59 | 90 | 3.0 | 7.0 | 0.00 | 0.00 | 0.06 | 82 | 1017.8 |
| 20260506184603 | 58 | 90 | 3.0 | 7.0 | 0.00 | 0.00 | 0.06 | 83 | 1017.9 |
| 20260506184047 | 58 | 113 | 3.0 | 7.0 | 0.00 | 0.00 | 0.06 | 84 | 1017.6 |
| 20260506183537 | 57 | 90 | 3.0 | 7.0 | 0.00 | 0.00 | 0.06 | 84 | 1017.6 |
| 20260506183027 | 57 | 113 | 3.0 | 7.0 | 0.00 | 0.00 | 0.06 | 84 | 1018.1 |
| 20260506182518 | 57 | 113 | 4.0 | 7.0 | 0.00 | 0.00 | 0.06 | 84 | 1018.1 |
| 20260506182011 | 58 | 90 | 2.0 | 4.0 | 0.00 | 0.00 | 0.06 | 85 | 1018.1 |
| 20260506181457 | 57 | 90 | 0.0 | 4.0 | 0.00 | 0.00 | 0.06 | 85 | 1018.1 |
| 20260506180947 | 57 | 113 | 2.0 | 4.0 | 0.00 | 0.00 | 0.06 | 85 | 1017.9 |
| 20260506175928 | 57 | 135 | 3.0 | 4.0 | 0.00 | 0.00 | 0.06 | 84 | 1017.9 |
| 20260506175428 | 57 | 113 | 2.0 | 4.0 | 0.00 | 0.00 | 0.06 | 85 | 1017.9 |
| 20260506174353 | 57 | 158 | 2.0 | 4.0 | 0.06 | 0.06 | 0.06 | 84 | 1017.9 |
| 20260506173843 | 57 | 158 | 2.0 | 4.0 | 0.05 | 0.05 | 0.05 | 84 | 1017.7 |
| 20260506173336 | 57 | 180 | 2.0 | 6.0 | 0.02 | 0.02 | 0.02 | 84 | 1018.2 |
| 20260506172822 | 57 | 248 | 1.0 | 6.0 | 0.01 | 0.01 | 0.01 | 84 | 1018.3 |
| 20260506171802 | 57 | 113 | 2.0 | 7.0 | 0.01 | 0.01 | 0.01 | 83 | 1018.1 |
| 20260506171252 | 57 | 135 | 4.0 | 7.0 | 0.00 | 0.00 | 0.00 | 82 | 1017.8 |
| 20260506170749 | 57 | 180 | 3.0 | 6.0 | 0.00 | 0.00 | 0.00 | 82 | 1017.9 |
| 20260506170231 | 57 | 158 | 3.0 | 7.0 | 0.00 | 0.00 | 0.00 | 81 | 1017.8 |
| 20260506165721 | 57 | 225 | 3.0 | 11.0 | 0.00 | 0.00 | 0.00 | 81 | 1017.7 |
| 20260506165211 | 57 | 158 | 5.0 | 13.0 | 0.00 | 0.00 | 0.00 | 81 | 1018.1 |
| 20260506164701 | 57 | 180 | 6.0 | 13.0 | 0.00 | 0.00 | 0.00 | 81 | 1017.5 |
| 20260506164155 | 57 | 158 | 7.0 | 11.0 | 0.00 | 0.00 | 0.00 | 81 | 1017.6 |
| 20260506162620 | 56 | 180 | 7.0 | 25.0 | 0.00 | 0.00 | 0.00 | 80 | 1016.7 |
| 20260506162111 | 56 | 180 | 10.0 | 25.0 | 0.00 | 0.00 | 0.00 | 80 | 1016.6 |
| 20260506161606 | 57 | 293 | 5.0 | 22.0 | 0.00 | 0.00 | 0.00 | 79 | 1016.7 |
| 20260506161051 | 57 | 180 | 11.0 | 22.0 | 0.00 | 0.00 | 0.00 | 75 | 1016.5 |
| 20260506160540 | 59 | 180 | 12.0 | 21.0 | 0.00 | 0.00 | 0.00 | 69 | 1017.1 |
| 20260506160030 | 61 | 180 | 11.0 | 16.0 | 0.00 | 0.00 | 0.00 | 62 | 1017.0 |
| 20260506155520 | 62 | 158 | 8.0 | 13.0 | 0.00 | 0.00 | 0.00 | 59 | 1016.8 |
| 20260506155015 | 63 | 225 | 4.0 | 9.0 | 0.00 | 0.00 | 0.00 | 57 | 1016.8 |
| 20260506154500 | 63 | 270 | 2.0 | 8.0 | 0.00 | 0.00 | 0.00 | 56 | 1016.6 |
| 20260506153440 | 63 | 248 | 5.0 | 8.0 | 0.00 | 0.00 | 0.00 | 57 | 1016.6 |
| 20260506152929 | 63 | 180 | 4.0 | 9.0 | 0.00 | 0.00 | 0.00 | 58 | 1016.3 |
| 20260506152425 | 62 | 225 | 5.0 | 14.0 | 0.00 | 0.00 | 0.00 | 59 | 1016.8 |
| 20260506151400 | 62 | 270 | 6.0 | 13.0 | 0.00 | 0.00 | 0.00 | 60 | 1016.6 |
| 20260506150849 | 64 | 293 | 5.0 | 15.0 | 0.00 | 0.00 | 0.00 | 57 | 1016.6 |
| 20260506150338 | 64 | 270 | 7.0 | 15.0 | 0.00 | 0.00 | 0.00 | 54 | 1016.4 |